GFA214 OKKK-OBBI

Flight info

Callsign GFA214
Flight time 0h 43m
Altitude 27000
Route BOXIK B416 IMDOX P975 LONOS L703 KOBOK
Aircraft A20N/M-SDE2E3FGHIRWXY/LB1

Departure

Time 2026-04-28 16:24
Airport Kuwait International Airport (OKKK)

Arrival

Time 2026-04-28 17:08
Airport Bahrain International Airport (OBBI)
Time Latitude Longitude Altitude Speed Heading
2026-04-28 15:06 29.23860 47.97137 155 ft 0 kts 29°
2026-04-28 16:14 29.23842 47.97126 155 ft 2 kts 34°
2026-04-28 16:14 29.23817 47.97102 155 ft 2 kts 49°
2026-04-28 16:15 29.23795 47.97073 154 ft 2 kts 30°
2026-04-28 16:15 29.23785 47.97060 154 ft 2 kts 135°
2026-04-28 16:15 29.23790 47.97055 154 ft 0 kts 148°
2026-04-28 16:18 29.23789 47.97056 154 ft 1 kts 148°
2026-04-28 16:18 29.23734 47.97087 154 ft 20 kts 156°
2026-04-28 16:19 29.23591 47.97188 156 ft 18 kts 155°
2026-04-28 16:19 29.23565 47.97193 156 ft 6 kts 200°
2026-04-28 16:19 29.23529 47.97118 155 ft 19 kts 244°
2026-04-28 16:19 29.23455 47.96947 154 ft 29 kts 244°
2026-04-28 16:20 29.23389 47.96781 156 ft 11 kts 240°
2026-04-28 16:20 29.23333 47.96783 157 ft 11 kts 153°
2026-04-28 16:20 29.23212 47.96843 158 ft 26 kts 155°
2026-04-28 16:20 29.23028 47.96939 161 ft 31 kts 153°
2026-04-28 16:21 29.22821 47.97047 163 ft 34 kts 157°
2026-04-28 16:21 29.22601 47.97159 165 ft 35 kts 153°
2026-04-28 16:21 29.22366 47.97286 168 ft 39 kts 152°
2026-04-28 16:21 29.22114 47.97425 171 ft 41 kts 155°
2026-04-28 16:22 29.21856 47.97565 173 ft 42 kts 155°
2026-04-28 16:22 29.21588 47.97703 177 ft 42 kts 154°
2026-04-28 16:22 29.21442 47.97782 178 ft 10 kts 155°
2026-04-28 16:22 29.21340 47.97838 180 ft 23 kts 154°
2026-04-28 16:23 29.21245 47.97815 181 ft 12 kts 252°
2026-04-28 16:23 29.21262 47.97715 194 ft 14 kts 297°
2026-04-28 16:23 29.21315 47.97613 191 ft 15 kts 325°
2026-04-28 16:23 29.21534 47.97493 183 ft 74 kts 335°
2026-04-28 16:24 29.22257 47.97109 180 ft 149 kts 334°
2026-04-28 16:24 29.23251 47.96591 819 ft 154 kts 335°
2026-04-28 16:24 29.24247 47.96114 1714 ft 157 kts 336°
2026-04-28 16:24 29.25297 47.95573 2392 ft 174 kts 334°
2026-04-28 16:25 29.26449 47.94941 2979 ft 193 kts 333°
2026-04-28 16:25 29.27715 47.94243 3570 ft 215 kts 334°
2026-04-28 16:25 29.29141 47.93465 4060 ft 245 kts 334°
2026-04-28 16:25 29.30782 47.92581 4882 ft 268 kts 334°
2026-04-28 16:26 29.32538 47.91837 6330 ft 272 kts 350°
2026-04-28 16:26 29.34432 47.91970 7740 ft 278 kts 17°
2026-04-28 16:26 29.36127 47.93063 9093 ft 285 kts 43°
2026-04-28 16:26 29.37231 47.94914 10626 ft 277 kts 70°
2026-04-28 16:27 29.37591 47.97025 12146 ft 267 kts 88°
2026-04-28 16:27 29.37399 47.99093 13405 ft 264 kts 106°
2026-04-28 16:27 29.35546 48.02823 15227 ft 285 kts 122°
2026-04-28 16:28 29.34230 48.04551 16028 ft 291 kts 144°
2026-04-28 16:28 29.33108 48.05422 16441 ft 296 kts 148°
2026-04-28 16:28 29.30839 48.07242 16293 ft 295 kts 141°
2026-04-28 16:28 29.29348 48.08787 15896 ft 292 kts 135°
2026-04-28 16:29 29.26692 48.12284 15094 ft 302 kts 129°
2026-04-28 16:29 29.23741 48.16587 15001 ft 363 kts 128°
2026-04-28 16:30 29.22183 48.18872 15082 ft 366 kts 128°
2026-04-28 16:30 29.20601 48.21184 15891 ft 370 kts 128°
2026-04-28 16:30 29.19025 48.23481 17069 ft 372 kts 128°
2026-04-28 16:30 29.17409 48.25832 18039 ft 378 kts 128°
2026-04-28 16:31 29.15766 48.28218 18991 ft 384 kts 128°
2026-04-28 16:31 29.14098 48.30641 19918 ft 389 kts 128°
2026-04-28 16:31 29.12428 48.33063 20797 ft 395 kts 128°
2026-04-28 16:31 29.10712 48.35552 21666 ft 400 kts 128°
2026-04-28 16:32 29.08973 48.38072 22503 ft 405 kts 128°
2026-04-28 16:32 29.05426 48.43207 24097 ft 416 kts 129°
2026-04-28 16:32 29.03638 48.45792 24836 ft 421 kts 129°
2026-04-28 16:33 29.01815 48.48427 25564 ft 425 kts 129°
2026-04-28 16:33 29.01193 48.49326 25796 ft 427 kts 129°
2026-04-28 16:33 28.98097 48.53795 26778 ft 435 kts 129°
2026-04-28 16:33 28.96218 48.56506 26963 ft 436 kts 129°
2026-04-28 16:34 28.94336 48.59220 26998 ft 436 kts 129°
2026-04-28 16:34 28.93084 48.61023 26999 ft 436 kts 129°
2026-04-28 16:34 28.90559 48.64659 27000 ft 436 kts 129°
2026-04-28 16:34 28.89308 48.66459 27000 ft 436 kts 129°
2026-04-28 16:35 28.86811 48.70049 27000 ft 436 kts 129°
2026-04-28 16:35 28.84922 48.72763 26999 ft 436 kts 129°
2026-04-28 16:35 28.83648 48.74593 27001 ft 436 kts 129°
2026-04-28 16:35 28.81777 48.77279 27001 ft 436 kts 129°
2026-04-28 16:36 28.80003 48.80090 27000 ft 436 kts 122°
2026-04-28 16:36 28.78492 48.83109 27000 ft 437 kts 119°
2026-04-28 16:36 28.77037 48.86101 27000 ft 437 kts 119°
2026-04-28 16:36 28.75557 48.89132 26999 ft 437 kts 119°
2026-04-28 16:37 28.74078 48.92152 27001 ft 437 kts 119°
2026-04-28 16:37 28.72591 48.95181 27000 ft 437 kts 120°
2026-04-28 16:37 28.71105 48.98206 27000 ft 437 kts 120°
2026-04-28 16:38 28.68151 49.04210 26999 ft 437 kts 120°
2026-04-28 16:38 28.66667 49.07224 27000 ft 437 kts 120°
2026-04-28 16:38 28.65177 49.10246 27001 ft 437 kts 120°
2026-04-28 16:38 28.63692 49.13257 26999 ft 437 kts 120°
2026-04-28 16:39 28.62203 49.16274 27000 ft 437 kts 120°
2026-04-28 16:39 28.60710 49.19298 27000 ft 437 kts 120°
2026-04-28 16:39 28.59077 49.22155 27000 ft 436 kts 129°
2026-04-28 16:39 28.56965 49.24623 27000 ft 436 kts 140°
2026-04-28 16:40 28.54464 49.26561 27000 ft 435 kts 152°
2026-04-28 16:40 28.51800 49.28194 27000 ft 435 kts 149°
2026-04-28 16:40 28.49295 49.30159 27001 ft 435 kts 142°
2026-04-28 16:40 28.46993 49.32401 27001 ft 436 kts 139°
2026-04-28 16:41 28.44740 49.34654 27000 ft 436 kts 139°
2026-04-28 16:41 28.42456 49.36928 26999 ft 436 kts 139°
2026-04-28 16:41 28.40172 49.39198 27000 ft 436 kts 139°
2026-04-28 16:41 28.37880 49.41472 27000 ft 436 kts 139°
2026-04-28 16:42 28.35624 49.43708 27000 ft 436 kts 139°
2026-04-28 16:42 28.33335 49.45976 27000 ft 436 kts 139°
2026-04-28 16:42 28.31052 49.48236 27001 ft 436 kts 139°
2026-04-28 16:42 28.28765 49.50496 27000 ft 436 kts 139°
2026-04-28 16:43 28.26473 49.52756 26999 ft 436 kts 139°
2026-04-28 16:43 28.24177 49.55018 27000 ft 436 kts 139°
2026-04-28 16:43 28.21884 49.57263 26999 ft 435 kts 141°
2026-04-28 16:43 28.19481 49.59358 26999 ft 436 kts 143°
2026-04-28 16:44 28.17087 49.61413 27001 ft 435 kts 143°
2026-04-28 16:44 28.14671 49.63489 27000 ft 435 kts 143°
2026-04-28 16:44 28.12258 49.65564 27001 ft 435 kts 143°
2026-04-28 16:44 28.09833 49.67648 26999 ft 435 kts 143°
2026-04-28 16:45 28.07417 49.69723 26999 ft 435 kts 143°
2026-04-28 16:45 28.05033 49.71770 27001 ft 435 kts 143°
2026-04-28 16:45 28.02579 49.73801 27001 ft 435 kts 145°
2026-04-28 16:45 28.00081 49.75737 27001 ft 435 kts 146°
2026-04-28 16:46 27.97561 49.77657 27000 ft 435 kts 146°
2026-04-28 16:46 27.95071 49.79561 26999 ft 435 kts 146°
2026-04-28 16:46 27.92561 49.81492 27000 ft 435 kts 146°
2026-04-28 16:46 27.90062 49.83425 27000 ft 435 kts 146°
2026-04-28 16:47 27.87563 49.85362 27001 ft 435 kts 146°
2026-04-28 16:47 27.85068 49.87317 26999 ft 435 kts 145°
2026-04-28 16:47 27.82593 49.89292 26989 ft 434 kts 145°
2026-04-28 16:47 27.80134 49.91264 26763 ft 433 kts 145°
2026-04-28 16:48 27.77714 49.93202 26394 ft 429 kts 145°
2026-04-28 16:48 27.75285 49.95143 25784 ft 425 kts 145°
2026-04-28 16:48 27.72882 49.97059 25058 ft 421 kts 145°
2026-04-28 16:48 27.70495 49.98952 24299 ft 416 kts 147°
2026-04-28 16:49 27.67925 50.00409 23544 ft 411 kts 161°
2026-04-28 16:49 27.65214 50.01392 22792 ft 406 kts 162°
2026-04-28 16:49 27.62555 50.02387 22243 ft 399 kts 162°
2026-04-28 16:49 27.59911 50.03393 22054 ft 410 kts 161°
2026-04-28 16:50 27.57111 50.04457 22002 ft 438 kts 162°
2026-04-28 16:50 27.54178 50.05566 22001 ft 460 kts 162°
2026-04-28 16:50 27.51099 50.06725 22000 ft 467 kts 162°
2026-04-28 16:50 27.47998 50.07891 22000 ft 467 kts 162°
2026-04-28 16:51 27.44905 50.09051 22000 ft 467 kts 162°
2026-04-28 16:51 27.41846 50.10198 22000 ft 467 kts 162°
2026-04-28 16:51 27.38759 50.11355 22000 ft 467 kts 162°
2026-04-28 16:51 27.35657 50.12516 22000 ft 467 kts 162°
2026-04-28 16:52 27.32568 50.13672 22000 ft 467 kts 162°
2026-04-28 16:52 27.29526 50.14810 22000 ft 467 kts 162°
2026-04-28 16:52 27.26430 50.15967 22000 ft 467 kts 162°
2026-04-28 16:52 27.23334 50.17124 22000 ft 467 kts 162°
2026-04-28 16:53 27.20261 50.18272 21773 ft 462 kts 162°
2026-04-28 16:53 27.17218 50.19407 21001 ft 457 kts 162°
2026-04-28 16:53 27.14246 50.20516 20043 ft 451 kts 162°
2026-04-28 16:53 27.11283 50.21621 18980 ft 444 kts 162°
2026-04-28 16:54 27.08357 50.22711 17883 ft 438 kts 162°
2026-04-28 16:54 27.05517 50.23768 16802 ft 431 kts 162°
2026-04-28 16:54 27.02693 50.24819 15716 ft 424 kts 162°
2026-04-28 16:54 27.00808 50.25521 14985 ft 420 kts 162°
2026-04-28 16:55 26.97166 50.26875 13542 ft 411 kts 162°
2026-04-28 16:55 26.94474 50.27875 12465 ft 405 kts 162°
2026-04-28 16:55 26.91819 50.28861 11394 ft 398 kts 162°
2026-04-28 16:55 26.89231 50.29822 10347 ft 392 kts 162°
2026-04-28 16:56 26.86670 50.30772 9020 ft 382 kts 162°
2026-04-28 16:56 26.84170 50.31699 7564 ft 375 kts 162°
2026-04-28 16:56 26.81702 50.32614 6190 ft 372 kts 162°
2026-04-28 16:56 26.79290 50.33508 5484 ft 350 kts 162°
2026-04-28 16:57 26.77103 50.34318 5151 ft 320 kts 162°
2026-04-28 16:57 26.75070 50.35072 4889 ft 294 kts 162°
2026-04-28 16:57 26.73207 50.35761 4634 ft 272 kts 162°
2026-04-28 16:57 26.71438 50.36416 4086 ft 265 kts 162°
2026-04-28 16:58 26.69711 50.37053 3454 ft 262 kts 162°
2026-04-28 16:58 26.67980 50.37693 2820 ft 260 kts 162°
2026-04-28 16:58 26.66276 50.38322 2404 ft 250 kts 162°
2026-04-28 16:58 26.64680 50.38912 2272 ft 233 kts 162°
2026-04-28 16:59 26.63180 50.39467 2247 ft 220 kts 162°
2026-04-28 16:59 26.61785 50.39982 2247 ft 207 kts 162°
2026-04-28 16:59 26.60444 50.40477 2247 ft 196 kts 162°
2026-04-28 16:59 26.59185 50.40941 2246 ft 185 kts 162°
2026-04-28 17:00 26.57982 50.41385 2253 ft 184 kts 162°
2026-04-28 17:00 26.56726 50.41846 2256 ft 205 kts 162°
2026-04-28 17:00 26.55358 50.42350 2249 ft 208 kts 162°
2026-04-28 17:00 26.53978 50.42859 2249 ft 210 kts 162°
2026-04-28 17:01 26.52499 50.43403 2250 ft 231 kts 162°
2026-04-28 17:01 26.50967 50.43968 2249 ft 232 kts 162°
2026-04-28 17:01 26.49441 50.44531 2249 ft 229 kts 162°
2026-04-28 17:01 26.47927 50.45090 2249 ft 229 kts 162°
2026-04-28 17:02 26.46323 50.45680 2251 ft 257 kts 162°
2026-04-28 17:02 26.45195 50.46095 2249 ft 258 kts 162°
2026-04-28 17:02 26.42942 50.46925 2247 ft 250 kts 162°
2026-04-28 17:02 26.41340 50.47515 2247 ft 234 kts 162°
2026-04-28 17:03 26.38426 50.48589 2248 ft 206 kts 162°
2026-04-28 17:03 26.37132 50.49065 2246 ft 191 kts 162°
2026-04-28 17:03 26.35921 50.49510 2256 ft 172 kts 162°
2026-04-28 17:04 26.34264 50.50897 2251 ft 142 kts 126°
2026-04-28 17:04 26.33725 50.51806 2136 ft 138 kts 123°
2026-04-28 17:05 26.32684 50.53625 1763 ft 139 kts 123°
2026-04-28 17:05 26.32164 50.54530 1578 ft 138 kts 123°
2026-04-28 17:05 26.31647 50.55430 1398 ft 138 kts 123°
2026-04-28 17:06 26.30623 50.57214 1030 ft 137 kts 124°
2026-04-28 17:06 26.30109 50.58109 844 ft 137 kts 123°
2026-04-28 17:06 26.29083 50.59893 484 ft 136 kts 123°
2026-04-28 17:07 26.28574 50.60779 305 ft 136 kts 123°
2026-04-28 17:07 26.28068 50.61662 125 ft 135 kts 124°
2026-04-28 17:07 26.27556 50.62539 27 ft 130 kts 123°
2026-04-28 17:07 26.27132 50.63275 15 ft 90 kts 125°
2026-04-28 17:08 26.26906 50.63672 15 ft 31 kts 123°
2026-04-28 17:08 26.26807 50.63741 17 ft 16 kts 164°
2026-04-28 17:08 26.26690 50.63761 20 ft 12 kts 201°
2026-04-28 17:08 26.26675 50.63720 21 ft 5 kts 292°
2026-04-28 17:09 26.26721 50.63628 21 ft 19 kts 299°
2026-04-28 17:09 26.26815 50.63491 21 ft 22 kts 298°
2026-04-28 17:09 26.26870 50.63375 19 ft 19 kts 303°
2026-04-28 17:09 26.26950 50.63236 20 ft 19 kts 302°
2026-04-28 17:10 26.26944 50.63169 21 ft 8 kts 214°
2026-04-28 17:10 26.26914 50.63096 23 ft 15 kts 288°
2026-04-28 17:10 26.26986 50.62973 21 ft 23 kts 304°
2026-04-28 17:10 26.27067 50.62826 22 ft 13 kts 302°
2026-04-28 17:11 26.27092 50.62763 20 ft 6 kts 244°
2026-04-28 17:11 26.27048 50.62733 20 ft 2 kts 211°
2026-04-28 17:11 26.27017 50.62711 21 ft 5 kts 212°
2026-04-28 17:11 26.27008 50.62705 22 ft 0 kts 213°